Location: Boissise-la-Bertrand
(48.5284°N, 2.5924°E)
Time: 02:33:11
(UTC+00:00)

Daily predictions for brighter satellites

Satellite Brightness Start Highest point End
(mag) Time Altitude Azimuth Time Altitude Azimuth Time Altitude Azimuth
Cosmos 2228 Rocket 3.5 00:05:20 42° SE 00:06:19 51° E 00:10:41 10° NNE
Cosmos 2082 Rocket 2.8 00:07:01 34° SSE 00:08:44 42° ESE 00:14:05 10° NE
Meteor 1-12 Rocket 4.3 00:03:16 10° N 00:09:11 81° ENE 00:11:47 36° SSE
Helios 1A Rocket 4.2 00:07:43 23° ESE 00:09:15 32° ENE 00:12:43 10° N
Cosmos 1833 Rocket 2.9 00:08:10 31° SW 00:10:52 64° WNW 00:16:29 10° NNE
BREEZE-M DEB (TANK) 3.1 00:13:11 52° SSE 00:13:11 52° SSE 00:19:07 10° ESE
Cosmos 724 4.2 00:12:03 39° SSW 00:14:21 77° ESE 00:20:12 10° NE
Cosmos 1908 4.0 00:12:56 10° NNW 00:16:07 34° W 00:16:07 34° W
ATLAS CENTAUR R/B 4.4 00:10:25 10° NW 00:24:05 63° SW 00:31:03 22° SSE
Cosmos 1140 Rocket 3.9 00:22:28 31° SW 00:24:44 55° WNW 00:29:53 10° NNE
PSLV R/B 4.5 00:20:55 10° N 00:25:13 42° WNW 00:26:43 31° WSW
USA 267 3.2 00:18:46 10° NE 00:25:21 89° NW 00:30:21 19° WSW
Cosmos 1707 4.1 00:26:20 24° W 00:26:59 25° WNW 00:30:05 10° NNW
Cosmos 1441 Rocket 3.7 00:23:46 10° NNW 00:27:04 40° W 00:27:04 40° W
Cosmos 1455 4.1 00:27:02 10° NNE 00:29:44 21° ENE 00:31:18 16° ESE
Cosmos 1869 Rocket 4.4 00:26:35 10° NNW 00:30:33 35° W 00:31:14 33° WSW
Cosmos 1733 Rocket 2.9 00:26:28 10° N 00:30:49 89° E 00:31:54 51° S
Resurs 1-4 Rocket 4.3 00:29:26 10° NE 00:32:39 16° E 00:35:52 10° SE
Cosmos 1400 Rocket 2.7 00:32:16 61° SSW 00:32:56 86° W 00:36:57 10° N
GP-B 3.6 00:29:44 10° N 00:33:59 48° W 00:35:02 39° WSW
H-2A R/B 3.0 00:33:19 10° N 00:37:28 39° WNW 00:39:00 29° WSW
Cosmos 381 Rocket 4.5 00:31:54 10° NNW 00:38:22 85° WSW 00:41:55 29° SSE
NOSS 3-4 (A) 3.9 00:35:37 10° NW 00:42:24 61° SW 00:47:10 25° SSE
NOSS 3-4 (C) 3.9 00:35:44 10° NW 00:42:30 61° SW 00:47:19 24° SSE
Cosmos 1346 Rocket 2.7 00:40:31 10° N 00:44:25 80° E 00:45:17 52° SSE
Cosmos 676 Rocket 4.3 00:42:47 35° SSE 00:44:45 56° ESE 00:49:59 10° NNE
Cosmos 2251 Rocket 3.8 00:44:25 32° SW 00:46:43 58° WNW 00:51:56 10° NNE
Cosmos 407 Rocket 4.0 00:44:27 30° SW 00:46:51 53° WNW 00:52:01 10° NNE
Cosmos 468 Rocket 3.9 00:42:01 10° NNW 00:47:20 84° WSW 00:49:47 33° SSE
Cosmos 1954 Rocket 4.0 00:48:42 38° S 00:50:46 75° ESE 00:56:05 10° NNE
Okean 2 4.0 00:49:49 35° SE 00:50:56 45° E 00:54:46 10° NNE
Cosmos 2333 Rocket 4.3 00:48:27 10° NNW 00:53:15 27° NE 00:58:04 10° ESE
Cosmos 1190 Rocket 4.0 00:51:10 37° SSW 00:53:18 81° WNW 00:58:39 10° NNE
Meteor 1-4 Rocket 3.6 00:53:08 26° ESE 00:53:20 27° E 00:55:55 10° NE
CZ-2C R/B 4.2 00:48:55 10° ESE 00:53:22 31° ENE 00:57:52 10° N
Cosmos 1763 Rocket 3.8 00:51:33 10° NNW 00:56:40 49° WSW 00:58:19 36° SSW
Cosmos 2322 Rocket 3.7 00:53:09 10° NNW 00:58:22 36° NE 01:03:34 10° ESE
Nadezhda 2 Rocket 4.5 00:55:25 32° S 00:58:36 90° SW 01:05:03 10° N
Cosmos 1300 3.3 00:55:58 10° NNW 00:59:16 36° W 00:59:22 36° W
Cosmos 1703 Rocket 4.4 00:58:54 28° SSE 01:00:46 44° E 01:05:01 10° NNE
USA 234 3.3 00:56:31 14° SSE 01:02:02 54° SW 01:08:27 10° WNW
SL-14 R/B 3.9 01:01:39 37° WSW 01:02:29 42° WNW 01:06:10 10° N
Cosmos 1953 2.5 00:59:58 10° N 01:03:53 66° ENE 01:05:20 36° SSE
SL-8 R/B 3.7 00:59:32 10° W 01:04:13 57° SSW 01:08:54 10° SE
Cosmos 1697 Rocket 4.1 01:00:50 10° NW 01:04:53 21° W 01:05:44 20° WSW
Cosmos 1862 Rocket 3.8 01:04:13 39° SW 01:05:30 56° WNW 01:09:47 10° N
Aureole 3 3.1 01:09:14 44° W 01:09:17 44° WNW 01:12:11 10° N
Cosmos 1980 Rocket 2.9 01:07:08 10° NW 01:12:19 37° WSW 01:14:01 30° SW
Nadezhda 1 Rocket 4.1 01:07:16 10° N 01:13:43 79° E 01:18:17 20° SSE
Cosmos 1242 Rocket 4.3 01:13:26 15° ESE 01:14:17 17° E 01:16:17 10° NE
Cosmos 540 Rocket 3.8 01:10:09 10° NNW 01:15:05 46° WSW 01:16:52 33° SSW
ADEOS II 3.8 01:15:40 10° NE 01:20:00 26° E 01:24:12 10° SSE
MOZ.5/SAFIR/RUBIN 5/SL-8 3.7 01:18:21 28° S 01:20:50 84° WSW 01:25:35 10° NNW
COSMOS 2406 3.4 01:19:32 28° SW 01:22:38 70° WNW 01:28:25 10° NNE
Cosmos 1408 4.5 01:21:25 13° ESE 01:22:47 17° E 01:24:51 10° NE
Cosmos 2369 4.3 01:18:10 10° NW 01:23:26 39° WSW 01:25:30 29° SSW
Cosmos 1356 Rocket 4.0 01:22:17 32° WSW 01:23:34 43° WNW 01:27:31 10° N
Lacrosse 5 rocket 1.2 01:20:23 10° NW 01:24:32 85° NE 01:28:28 10° SE
IDEFIX/ARIANE 42P 3.1 01:20:05 10° NNE 01:25:16 54° E 01:28:29 23° S
EXPRESS MD2 4.2 01:27:55 22° SE 01:27:55 22° SE 01:30:40 10° E
Okean 1-7 3.2 01:30:04 34° SW 01:31:44 60° WNW 01:36:01 10° N
Okean 3 4.4 01:34:53 26° WSW 01:36:18 33° WNW 01:40:04 10° N
Cosmos 1238 4.4 01:35:09 10° NNW 01:39:04 72° W 01:40:13 38° S
ATLAS 2AS CENTAUR R/B 4.0 01:32:59 10° NW 01:39:34 43° NE 01:45:53 10° ESE
Cosmos 1315 Rocket 2.7 01:39:37 35° SSW 01:41:10 76° WNW 01:45:06 10° N
SJ 16-02 2.8 01:39:50 15° SSE 01:42:37 30° ESE 01:46:23 10° NE
SL-16 R/B 2.1 01:37:20 10° NNW 01:43:02 80° WSW 01:48:42 10° SSE
Helios 1A Rocket 4.1 01:43:06 23° WSW 01:43:38 24° W 01:46:49 10° NW
CZ-2C R/B 4.1 01:38:06 10° NNE 01:43:43 47° E 01:48:26 14° SSE
Cosmos 1850 Rocket 4.1 01:46:14 24° SSW 01:49:27 77° ESE 01:54:44 10° NNE
Cosmos 2082 Rocket 3.2 01:48:50 16° WSW 01:52:52 39° NW 01:58:13 10° NNE
Cosmos 1709 Rocket 4.1 01:49:42 19° S 01:54:22 86° E 02:00:48 10° N
Cosmos 1741 Rocket 4.0 01:51:18 24° SSW 01:54:34 80° ESE 01:59:51 10° NNE
Cosmos 2219 Rocket 3.6 01:50:45 10° NNW 01:56:05 40° NE 02:01:23 10° ESE
SL-16 R/B 3.1 01:50:32 10° SE 01:56:40 60° ENE 02:02:49 10° N
Cosmos 1782 Rocket 3.5 01:52:32 10° NNW 01:56:54 68° W 01:59:39 22° S
Cosmos 1908 Rocket 4.3 01:53:29 10° NNW 01:57:32 36° W 01:59:24 24° SW
CZ-2D R/B 2.3 01:53:07 10° NNE 01:58:38 76° ESE 02:02:42 18° S
Cosmos 2237 4.4 01:57:13 10° NW 02:02:46 52° WSW 02:07:48 12° S
Cosmos 1703 4.1 02:00:01 15° SSE 02:02:51 42° E 02:06:24 10° NNE
Meteor 1-28 Rocket 3.9 02:00:12 10° SSE 02:03:40 51° ENE 02:07:08 10° N
Cosmos 1455 3.1 02:01:16 10° NNW 02:04:13 27° W 02:05:04 24° WSW
Cosmos 2360 Rocket 2.3 01:59:23 10° NNW 02:05:07 79° ENE 02:10:47 10° SSE
Cosmos 968 Rocket 3.6 02:02:10 20° S 02:05:42 72° ESE 02:10:50 10° NNE
CRYOSAT 2 4.4 02:01:47 10° N 02:06:43 79° E 02:10:48 15° S
Genesis I 3.7 02:05:37 23° S 02:07:23 43° ESE 02:10:47 10° NE
USA 267 4.1 02:01:50 10° ENE 02:08:03 48° NNW 02:14:16 10° W
Meteor 1-24 Rocket 4.5 02:02:48 10° S 02:08:39 54° E 02:14:28 10° NNE
RESURS DK-1 3.1 02:05:13 10° NNW 02:09:13 55° ENE 02:13:13 10° SE
DELTA 2 R/B (1) 4.3 02:06:58 18° WSW 02:10:08 31° S 02:14:58 10° SE
MSX 3.8 02:05:50 10° NNE 02:11:36 78° WNW 02:16:00 18° SSW
Resurs 1-4 Rocket 2.1 02:07:48 10° NNE 02:13:04 79° WNW 02:17:04 18° SSW
Cosmos 841 Rocket 4.2 02:08:36 10° NW 02:13:17 34° WSW 02:16:19 19° SSW
H-2A R/B 3.9 02:13:33 10° N 02:17:24 46° WNW 02:19:49 20° SW
FENGYUN 3A 3.8 02:17:07 10° NNE 02:22:32 77° ESE 02:27:27 12° S
COBE Rocket 4.5 02:19:28 10° N 02:24:06 44° WNW 02:27:39 17° SW
Meteor 1-4 Rocket 4.2 02:25:17 13° W 02:26:24 15° WNW 02:28:13 10° NNW
SL-24 R/B 4.3 02:28:20 10° S 02:33:14 74° W 02:38:04 10° N
CZ-2C R/B 3.0 02:29:14 13° SSW 02:33:30 42° W 02:38:25 10° NNW
Cosmos 2242 Rocket 3.9 02:30:51 17° SSW 02:34:11 54° WNW 02:38:37 10° N
Timation 1 Rocket 4.5 02:32:20 15° SW 02:37:18 70° WNW 02:43:16 10° NNE
Cosmos 1825 3.8 02:34:39 10° SSE 02:37:38 28° E 02:40:38 10° NNE
Cosmos 2333 Rocket 2.2 02:32:21 10° NNW 02:38:02 68° WSW 02:43:43 10° SSE
Sich 1 Rocket 4.0 02:33:42 10° N 02:38:12 66° ENE 02:42:38 10° SSE
Cosmos 2098 Rocket 3.7 02:33:31 10° NNW 02:38:37 70° W 02:44:39 10° S
Cosmos 1953 4.4 02:37:50 10° WNW 02:39:08 11° W 02:40:26 10° WSW
Cosmos 2151 Rocket 3.8 02:36:14 10° N 02:40:45 76° E 02:45:11 10° SSE
Cosmos 1814 Rocket 4.2 02:36:45 10° NNW 02:41:49 52° WSW 02:46:53 10° S
SL-27 R/B 1.9 02:40:26 18° SSW 02:42:20 67° WNW 02:45:08 10° NNE
Cosmos 2292 4.3 02:39:22 10° NNW 02:42:28 72° W 02:46:09 10° S
Cosmos 2322 Rocket 2.5 02:37:10 10° NW 02:42:31 45° WSW 02:47:52 10° S
Cosmos 1892 3.7 02:40:25 10° SSE 02:43:43 39° E 02:47:01 10° NNE
Cosmos 1242 Rocket 3.6 02:44:54 14° WSW 02:46:28 21° WNW 02:48:47 10° NNW
Meteor 2-5 Rocket 3.9 02:43:04 10° SSW 02:48:58 78° WNW 02:54:58 10° N
SL-4 R/B 3.5 02:47:25 11° SSW 02:50:56 29° SE 02:54:48 10° E
Okean 2 Rocket 3.1 02:49:13 10° N 02:53:38 88° WSW 02:58:02 10° S
Cosmos 1408 3.6 02:53:36 13° WSW 02:55:31 23° WNW 02:57:59 10° NNW
Cosmos 2074 Rocket 4.1 02:49:59 10° S 02:56:13 89° E 03:02:29 10° N
Cosmos 1674 Rocket 3.7 02:53:18 10° S 02:57:44 82° E 03:02:12 10° N
Cosmos 1570 Rocket 4.0 02:54:23 10° NNW 02:59:43 83° WSW 03:05:02 10° SSE
ADEOS II 2.5 02:54:49 10° N 02:59:53 51° WNW 03:04:56 10° SW
Lacrosse 5 rocket 2.7 02:59:41 10° W 03:02:20 17° SW 03:04:56 10° SSW
Cosmos 2208 Rocket 4.2 02:57:32 10° NNW 03:02:52 81° ENE 03:08:06 10° SSE
Cosmos 1833 4.3 02:58:20 10° SSW 03:03:59 76° WNW 03:09:41 10° NNE
IDEFIX/ARIANE 42P 3.9 03:00:11 10° N 03:04:28 26° WNW 03:08:43 10° WSW
ALOS 2.3 03:00:41 10° N 03:05:18 69° WNW 03:09:53 10° SSW
Cosmos 405 Rocket 2.6 03:09:20 10° NNW 03:12:53 61° W 03:16:28 10° S
Cosmos 2184 Rocket 4.1 03:08:13 10° SSW 03:14:25 72° W 03:20:44 10° N
Cosmos 1378 Rocket 3.7 03:10:45 10° SSW 03:14:57 57° WNW 03:19:13 10° N
CZ-2C R/B 3.1 03:13:03 10° NNE 03:17:45 53° E 03:22:17 10° S
Envisat 3.2 03:13:09 10° NNE 03:18:16 77° ESE 03:23:20 10° S
Okean 1 Rocket 3.0 03:15:52 10° NNW 03:20:12 74° W 03:24:30 10° S
ATLAS CENTAUR R/B 2.9 03:18:01 10° S 03:20:52 24° ESE 03:23:45 10° ENE
SJ 16-02 2.4 03:17:02 10° WSW 03:20:55 32° WNW 03:24:49 10° N
Nadezhda 3 Rocket 4.1 03:16:52 10° NNW 03:23:14 72° W 03:29:30 10° S
CZ-2C R/B 4.3 03:18:11 10° N 03:23:19 33° WNW 03:28:23 10° SW
Cosmos 158 Rocket 4.1 03:19:10 10° NNW 03:24:34 78° WSW 03:29:54 10° SSE
Cosmos 2154 Rocket 4.1 03:19:29 10° SSW 03:25:39 72° W 03:31:54 10° N
SL-16 R/B 3.9 03:23:33 10° WNW 03:26:11 13° W 03:28:48 10° SW
UNK 4.3 03:22:02 10° SSW 03:26:22 39° W 03:30:44 10° NNW
